Weather History for Independence, KS

Change the Weather History Date:

Thursday, February 21, 2013

  Actual Average (KCFV) Record (KCFV)
Temperature  
Mean Temperature 28 °F -  
Max Temperature 32 °F 49 °F 68 °F (2007)
Min Temperature 24 °F 30 °F 19 °F (2006)
Degree Days  
Heating Degree Days 37    
Moisture  
Dew Point 30 °F    
Average Humidity 94    
Maximum Humidity 100    
Minimum Humidity 69    
Precipitation  
Precipitation 0.00 in - - ()
Sea Level Pressure  
Sea Level Pressure 29.82 in    
Wind  
Wind Speed 10 mph (East)    
Max Wind Speed 21 mph    
Max Gust Speed 24 mph    
Visibility 6 miles    
Events Snow , Thunderstorm    
Averages and records for this station are not official NWS values.
T = Trace of Precipitation, MM = Missing Value Source: NWS Daily Summary

Daily Weather History Graph

Daily Weather History Graph

Search for Another Location

Airport:

Trip Planner

Search our weather history database for the weather conditions in past years. The results will help you decide how hot, cold, wet, or windy it might be!

Date:

Astronomy

Feb. 21, 2013 Rise Set
Actual Time 7:04 AM CST 6:09 PM CST
Civil Twilight 6:37 AM CST 6:35 PM CST
Nautical Twilight 6:07 AM CST 7:06 PM CST
Astronomical Twilight 5:37 AM CST 7:36 PM CST
Moon 2:28 PM CST (2/21) 4:06 AM CST (2/21)
Length of Visible Light 11h 57m
Length of Day
11h 05m
Waxing Gibbous, 84% of the Moon is Illuminated
Feb 21
Waxing Gibbous
Feb 25
Full
Mar 4
Last Quarter
Mar 11
New
Mar 19
First Quarter

Hourly Weather History & Observations

Time (CST) Temp. Windchill Dew Point Humidity Pressure Visibility Wind Dir Wind Speed Gust Speed Precip Events Conditions
12:15 AM 32.0 °F 22.1 °F 23.0 °F 69% 30.05 in 10.0 mi ENE 13.8 mph 20.7 mph N/A   Overcast
12:35 AM 32.0 °F 22.1 °F 24.8 °F 75% 30.05 in 10.0 mi ENE 13.8 mph - N/A   Overcast
12:55 AM 30.2 °F 19.3 °F 24.8 °F 80% 30.03 in 10.0 mi East 15.0 mph 20.7 mph N/A   Overcast
1:15 AM 30.2 °F 19.8 °F 26.6 °F 86% 30.01 in 10.0 mi East 13.8 mph - N/A   Overcast
1:35 AM 30.2 °F 19.3 °F 26.6 °F 86% 30.01 in 7.0 mi East 15.0 mph - N/A   Overcast
1:55 AM 30.2 °F 20.2 °F 26.6 °F 86% 29.99 in 10.0 mi East 12.7 mph - N/A   Overcast
2:15 AM 30.2 °F 18.9 °F 26.6 °F 86% 29.98 in 10.0 mi East 16.1 mph 21.9 mph N/A   Overcast
2:35 AM 30.2 °F 17.8 °F 26.6 °F 86% 29.93 in 10.0 mi ENE 19.6 mph 23.0 mph N/A   Overcast
2:55 AM 32.0 °F 21.2 °F 26.6 °F 80% 29.93 in 5.0 mi East 16.1 mph 21.9 mph N/A   Overcast
3:15 AM 32.0 °F 22.5 °F 26.6 °F 80% 29.97 in 5.0 mi East 12.7 mph - N/A   Overcast
3:35 AM 30.2 °F 19.3 °F 28.4 °F 93% 29.93 in 4.0 mi East 15.0 mph - N/A   Overcast
3:55 AM 30.2 °F 19.3 °F 28.4 °F 93% 29.89 in 4.0 mi East 15.0 mph - N/A   Overcast
4:15 AM 30.2 °F 20.8 °F 28.4 °F 93% 29.91 in 10.0 mi ENE 11.5 mph - N/A Thunderstorm Overcast
4:35 AM 30.2 °F 20.2 °F 28.4 °F 93% 29.87 in 2.5 mi ENE 12.7 mph 21.9 mph N/A   Overcast
4:55 AM 30.2 °F 19.8 °F 28.4 °F 93% 29.87 in 4.0 mi East 13.8 mph 17.3 mph N/A Thunderstorm Overcast
5:15 AM 30.2 °F 26.7 °F 28.4 °F 93% 29.88 in 2.5 mi East 3.5 mph 9.2 mph N/A   Overcast
6:15 AM 32.0 °F 25.6 °F 30.2 °F 93% 29.85 in 3.0 mi ENE 6.9 mph - N/A   Overcast
6:35 AM 32.0 °F 27.5 °F 30.2 °F 93% 29.93 in 3.0 mi North 4.6 mph - N/A   Overcast
6:55 AM 32.0 °F 26.4 °F 30.2 °F 93% 29.89 in 3.0 mi NNE 5.8 mph - N/A Thunderstorm Overcast
7:15 AM 32.0 °F 24.8 °F 30.2 °F 93% 29.84 in 3.0 mi NE 8.1 mph - N/A Snow , Thunderstorm Light Thunderstorms and Snow
7:35 AM 30.2 °F 23.4 °F 30.2 °F 100% 29.86 in 4.0 mi ENE 6.9 mph - N/A Snow , Thunderstorm Light Thunderstorms and Snow
7:55 AM 32.0 °F 24.8 °F 30.2 °F 93% 29.83 in 2.5 mi ENE 8.1 mph - N/A Snow , Thunderstorm Light Thunderstorms and Snow
8:15 AM 32.0 °F 25.6 °F 30.2 °F 93% 29.85 in 3.0 mi ENE 6.9 mph - N/A   Overcast
8:35 AM 32.0 °F 25.6 °F 30.2 °F 93% 29.82 in 2.5 mi ENE 6.9 mph - N/A   Unknown
8:55 AM 32.0 °F 27.5 °F 32.0 °F 100% 29.84 in 4.0 mi ENE 4.6 mph - N/A   Scattered Clouds
9:15 AM 32.0 °F 24.8 °F 32.0 °F 100% 29.79 in 7.0 mi ENE 8.1 mph - N/A   Overcast
9:35 AM 32.0 °F 24.8 °F 30.2 °F 93% 29.80 in 7.0 mi East 8.1 mph - N/A   Overcast
9:55 AM 32.0 °F 25.6 °F 30.2 °F 93% 29.81 in 5.0 mi East 6.9 mph - N/A   Overcast
10:15 AM 32.0 °F 25.6 °F 30.2 °F 93% 29.80 in 4.0 mi East 6.9 mph - N/A   Overcast
10:35 AM 32.0 °F 24.8 °F 30.2 °F 93% 29.79 in 10.0 mi East 8.1 mph - N/A   Overcast
10:55 AM 32.0 °F 24.8 °F 30.2 °F 93% 29.77 in 10.0 mi East 8.1 mph - N/A   Overcast
11:15 AM 32.0 °F 26.4 °F 30.2 °F 93% 29.77 in 10.0 mi East 5.8 mph - N/A   Overcast
11:35 AM 32.0 °F 26.4 °F 30.2 °F 93% 29.77 in 10.0 mi East 5.8 mph - N/A   Overcast
11:55 AM 32.0 °F 26.4 °F 30.2 °F 93% 29.75 in 5.0 mi East 5.8 mph - N/A   Overcast
12:15 PM 32.0 °F 27.5 °F 32.0 °F 100% 29.74 in 4.0 mi East 4.6 mph - N/A   Overcast
12:35 PM 32.0 °F 27.5 °F 32.0 °F 100% 29.73 in 3.0 mi East 4.6 mph - N/A   Overcast
12:55 PM 32.0 °F 28.7 °F 32.0 °F 100% 29.72 in 3.0 mi East 3.5 mph - N/A   Overcast
1:15 PM 32.0 °F 27.5 °F 32.0 °F 100% 29.72 in 3.0 mi East 4.6 mph - N/A   Overcast
1:35 PM 32.0 °F 28.7 °F 32.0 °F 100% 29.71 in 4.0 mi East 3.5 mph - N/A   Overcast
1:55 PM 32.0 °F 27.5 °F 32.0 °F 100% 29.70 in 4.0 mi East 4.6 mph - N/A   Overcast
2:15 PM 32.0 °F 28.7 °F 32.0 °F 100% 29.70 in 1.8 mi East 3.5 mph - N/A   Overcast
2:55 PM 32.0 °F - 32.0 °F 100% 29.70 in 1.5 mi Calm Calm - N/A   Overcast
3:15 PM 32.0 °F - 32.0 °F 100% 29.70 in 1.8 mi Calm Calm - N/A   Overcast
3:35 PM 32.0 °F - 32.0 °F 100% 29.71 in 2.5 mi Calm Calm - N/A   Overcast
3:55 PM 32.0 °F - 32.0 °F 100% 29.71 in 1.8 mi Calm Calm - N/A   Overcast
4:15 PM 32.0 °F - 32.0 °F 100% 29.71 in 1.0 mi Calm Calm - N/A Snow Light Snow
4:35 PM 32.0 °F - 32.0 °F 100% 29.72 in 1.2 mi Calm Calm - N/A   Scattered Clouds
4:55 PM 32.0 °F - 32.0 °F 100% 29.72 in 2.0 mi Calm Calm - N/A Snow Light Snow
5:15 PM 32.0 °F - 32.0 °F 100% 29.73 in 3.0 mi Calm Calm - N/A   Overcast
5:35 PM 32.0 °F - 32.0 °F 100% 29.72 in 4.0 mi Calm Calm - N/A   Overcast
5:55 PM 32.0 °F - 32.0 °F 100% 29.74 in 4.0 mi Calm Calm - N/A   Overcast
6:15 PM 32.0 °F - 32.0 °F 100% 29.75 in 5.0 mi Calm Calm - N/A   Overcast
6:35 PM 32.0 °F - 32.0 °F 100% 29.76 in 3.0 mi Calm Calm - N/A   Overcast
6:55 PM 32.0 °F - 32.0 °F 100% 29.76 in 4.0 mi Calm Calm - N/A   Overcast
7:15 PM 32.0 °F 28.7 °F 32.0 °F 100% 29.77 in 4.0 mi SSW 3.5 mph - N/A   Overcast
7:35 PM 32.0 °F 28.7 °F 32.0 °F 100% 29.77 in 5.0 mi SW 3.5 mph - N/A   Overcast
7:55 PM 32.0 °F 28.7 °F 32.0 °F 100% 29.78 in 5.0 mi SW 3.5 mph - N/A   Overcast
8:15 PM 32.0 °F 28.7 °F 32.0 °F 100% 29.78 in 7.0 mi SW 3.5 mph - N/A   Overcast
8:35 PM 32.0 °F - 32.0 °F 100% 29.78 in 7.0 mi Calm Calm - N/A   Overcast
8:55 PM 32.0 °F 28.7 °F 32.0 °F 100% 29.78 in 7.0 mi SW 3.5 mph - N/A   Overcast
9:15 PM 32.0 °F 26.4 °F 32.0 °F 100% 29.78 in 10.0 mi WSW 5.8 mph - N/A   Overcast
9:35 PM 32.0 °F 19.8 °F 30.2 °F 93% 29.80 in 10.0 mi West 20.7 mph - N/A   Overcast
9:55 PM 30.2 °F 19.8 °F 28.4 °F 93% 29.83 in 10.0 mi West 13.8 mph 23.0 mph N/A   Overcast
10:15 PM 28.4 °F 16.6 °F 26.6 °F 93% 29.84 in 10.0 mi West 16.1 mph - N/A   Overcast
10:35 PM 26.6 °F 15.2 °F 24.8 °F 93% 29.85 in 10.0 mi West 13.8 mph - N/A   Mostly Cloudy
10:55 PM 26.6 °F 15.2 °F 23.0 °F 86% 29.88 in 10.0 mi West 13.8 mph 24.2 mph N/A   Scattered Clouds
11:15 PM 24.8 °F 12.4 °F 21.2 °F 86% 29.88 in 10.0 mi West 15.0 mph 24.2 mph N/A   Scattered Clouds
11:35 PM 24.8 °F 12.9 °F 21.2 °F 86% 29.89 in 10.0 mi West 13.8 mph - N/A   Clear